Location: Newark
(48.1500°N, 13.1167°E)
Time: 03:14:43
(UTC+00:00)

NOAA 15 - Visible Passes

Search period start: 06 December 2021 00:00
Search period end: 16 December 2021 00:00
Orbit: 797 x 813 km, 98.7° (Epoch: 05 December)

Date Brightness Start Highest point End Pass type
(mag) Time Alt. Az. Time Alt. Az. Time Alt. Az.
06 Dec 8.0 05:19:23 10° E 05:19:48 10° E 05:20:14 10° E visible
06 Dec 5.5 16:40:28 10° ESE 16:44:45 26° ENE 16:49:03 10° N visible
06 Dec 5.2 18:19:04 10° S 18:24:13 54° W 18:29:24 10° NNW visible
07 Dec 6.0 16:16:30 10° E 16:19:51 17° NE 16:23:12 10° NNE visible
07 Dec 4.5 17:53:40 10° SSE 17:58:58 86° WSW 18:04:16 10° NNW visible
07 Dec 7.4 19:37:08 10° WSW 19:39:31 13° W 19:41:54 10° WNW visible
08 Dec 6.9 06:05:23 10° NE 06:09:50 27° E 06:14:15 10° SSE visible
08 Dec 6.3 15:53:26 10° ENE 15:55:02 11° NE 15:56:38 10° NNE visible
08 Dec 4.5 17:28:36 10° SSE 17:33:47 61° ENE 17:38:59 10° N visible
08 Dec 6.8 19:09:59 10° SW 19:13:57 21° W 19:17:57 10° NW visible
09 Dec 7.4 05:40:58 10° NE 05:44:19 17° E 05:47:41 10° SE visible
09 Dec 5.0 17:03:51 10° SE 17:08:42 38° ENE 17:13:33 10° N visible
09 Dec 6.1 18:43:45 10° SSW 18:48:31 34° W 18:53:17 10° NNW visible
10 Dec 5.5 16:39:28 10° ESE 16:43:42 25° ENE 16:47:57 10° N visible
10 Dec 5.2 18:17:59 10° S 18:23:09 55° W 18:28:21 10° NNW visible
11 Dec 6.0 16:15:31 10° E 16:18:48 17° NE 16:22:05 10° NNE visible
11 Dec 4.5 17:52:36 10° SSE 17:57:54 87° WSW 18:03:12 10° NNW visible
11 Dec 7.4 19:35:58 10° WSW 19:38:26 13° W 19:40:55 10° WNW visible
12 Dec 7.0 06:04:20 10° NE 06:08:45 27° E 06:13:08 10° SSE visible
12 Dec 6.3 15:52:33 10° ENE 15:53:59 11° NE 15:55:26 10° NE visible
12 Dec 4.5 17:27:33 10° SSE 17:32:43 59° ENE 17:37:54 10° N visible
12 Dec 6.8 19:08:53 10° SW 19:12:53 22° W 19:16:55 10° NW visible
13 Dec 7.4 05:39:57 10° NE 05:43:15 17° E 05:46:31 10° SE visible
13 Dec 5.0 17:02:49 10° SE 17:07:38 38° ENE 17:12:28 10° N visible
13 Dec 6.0 18:42:39 10° SSW 18:47:26 35° W 18:52:14 10° NNW visible
14 Dec 5.5 16:38:27 10° ESE 16:42:40 25° ENE 16:46:51 10° N visible
14 Dec 5.1 18:16:55 10° S 18:22:05 56° W 18:27:17 10° NNW visible
15 Dec 6.0 16:14:32 10° E 16:17:45 17° NE 16:20:58 10° NNE visible
15 Dec 4.5 17:51:33 10° SSE 17:56:50 89° WSW 18:02:07 10° NNW visible
15 Dec 7.4 19:34:47 10° WSW 19:37:21 14° W 19:39:56 10° WNW visible
